TimeCST,TemperatureF,Dew PointF,Humidity,Sea Level PressureIn,VisibilityMPH,Wind Direction,Wind SpeedMPH,Gust SpeedMPH,PrecipitationIn,Events,Conditions,WindDirDegrees,DateUTC
12:54 AM,34.0,25.0,70,30.30,10.0,SSW,8.1,-,N/A,,Clear,200,2014-01-01 06:54:00
1:54 AM,35.1,25.0,67,30.28,10.0,SSW,9.2,-,N/A,,Clear,200,2014-01-01 07:54:00
2:54 AM,36.0,26.1,67,30.26,10.0,SSW,6.9,-,N/A,,Clear,210,2014-01-01 08:54:00
3:54 AM,35.1,26.1,70,30.25,10.0,SSW,8.1,-,N/A,,Clear,210,2014-01-01 09:54:00
4:54 AM,32.0,25.0,75,30.25,10.0,SW,4.6,-,N/A,,Clear,220,2014-01-01 10:54:00
5:54 AM,33.1,26.1,75,30.25,10.0,SSE,4.6,-,N/A,,Clear,160,2014-01-01 11:54:00
6:54 AM,30.9,24.1,76,30.25,10.0,South,5.8,-,N/A,,Clear,170,2014-01-01 12:54:00
7:54 AM,32.0,26.1,79,30.26,10.0,South,3.5,-,N/A,,Clear,180,2014-01-01 13:54:00
8:54 AM,36.0,27.0,70,30.26,10.0,South,6.9,-,N/A,,Clear,190,2014-01-01 14:54:00
9:54 AM,39.0,28.0,65,30.26,10.0,SSW,12.7,-,N/A,,Clear,200,2014-01-01 15:54:00
10:54 AM,42.1,28.0,58,30.23,10.0,SSW,15.0,-,N/A,,Clear,210,2014-01-01 16:54:00
11:54 AM,44.1,28.0,53,30.19,10.0,SW,15.0,-,N/A,,Clear,220,2014-01-01 17:54:00
12:54 PM,45.0,28.0,52,30.16,10.0,SSW,12.7,-,N/A,,Clear,200,2014-01-01 18:54:00
1:54 PM,45.0,28.0,52,30.12,10.0,SSW,9.2,-,N/A,,Clear,200,2014-01-01 19:54:00
2:54 PM,45.0,28.9,53,30.10,10.0,South,6.9,-,N/A,,Clear,190,2014-01-01 20:54:00
3:54 PM,44.1,28.0,53,30.12,10.0,SSW,5.8,-,N/A,,Clear,200,2014-01-01 21:54:00
4:54 PM,43.0,28.0,56,30.09,10.0,ESE,3.5,-,N/A,,Clear,120,2014-01-01 22:54:00
5:54 PM,42.1,28.0,58,30.08,10.0,ESE,3.5,-,N/A,,Clear,110,2014-01-01 23:54:00
6:54 PM,41.0,28.0,60,30.08,10.0,ESE,4.6,-,N/A,,Partly Cloudy,120,2014-01-02 00:54:00
7:54 PM,41.0,28.9,62,30.04,10.0,ESE,4.6,-,N/A,,Overcast,110,2014-01-02 01:54:00
8:54 PM,41.0,28.9,62,30.02,10.0,ESE,5.8,-,N/A,,Overcast,110,2014-01-02 02:54:00
9:54 PM,41.0,28.9,62,30.02,10.0,North,4.6,-,N/A,,Overcast,350,2014-01-02 03:54:00
10:54 PM,39.9,32.0,73,30.03,6.0,West,5.8,-,0.02,Rain,Rain,260,2014-01-02 04:54:00
11:13 PM,39.9,34.0,79,30.00,8.0,Calm,Calm,-,0.02,Rain,Light Rain,0,2014-01-02 05:13:00
11:54 PM,39.0,35.1,86,29.99,10.0,NE,3.5,-,0.03,Rain,Light Rain,50,2014-01-02 05:54:00